Location: *
(41.7492°S, 135.4150°W)
Time: 22:09:58
(UTC+00:00)

METEOR M2 - Pass Details

Date: 04 July 2022
Orbit: 818 x 827 km, 98.4° (Epoch: 17 August)

Event Time Altitude Azimuth Distance (km) Brightness Sun altitude
Exits shadow 03:31:12 36° 109° (ESE) 1,287 ? -19.5°
Maximum altitude 03:32:14 40° 82° (E) 1,210 ? -19.7°
Drops below altitude 10° 03:37:16 10° 13° (NNE) 2,423 ? -20.6°
Sets 03:39:44 0° 6° (N) 3,348 ? -21.1°
